Simultaneous Nadir Overpasses (SNOs) Predictions

Prediction of SNOs between LANDSAT-8 and METOP-B Satellite Orbit:

Table of predicted SNOs for the next 14.0 days since TLE Epoch: 5/30/2020
Index Date (LANDSAT-8) Time (LANDSAT-8) Lat,Lon (LANDSAT-8) SZA (LANDSAT-8 ) Date (METOP-B) Time (METOP-B) Lat,Lon (METOP-B) SZA (METOP-B ) Distance(km) Time Diff (sec)
1 05/31/2020 05:08:42 -81.16, -36.63 118.54 05/31/2020 05:08:34 -81.15, -36.77 118.56 2.40 8
2 05/31/2020 05:58:07 81.18, 131.43 61.52 05/31/2020 05:59:12 81.18, 131.49 61.55 1.08 65
3 06/03/2020 00:42:58 -81.15, 29.74 118.93 06/03/2020 00:42:55 -81.16, 29.89 118.91 2.81 3
4 06/03/2020 01:32:23 81.18,-162.22 61.13 06/03/2020 01:33:34 81.18,-162.27 61.16 0.76 71
5 06/05/2020 19:27:47 81.15, -71.56 60.74 06/05/2020 19:26:37 81.14, -71.67 60.69 2.07 70
6 06/05/2020 20:17:13 -81.17, 96.47 119.21 06/05/2020 20:17:16 -81.17, 96.54 119.20 1.24 3
7 06/08/2020 15:02:02 81.14, -5.21 60.45 06/08/2020 15:00:57 81.15, -5.07 60.44 2.49 65
8 06/08/2020 15:51:28 -81.17, 162.84 119.50 06/08/2020 15:51:37 -81.17, 162.80 119.50 0.62 9
9 06/11/2020 10:36:18 81.14, 61.14 60.21 06/11/2020 10:35:19 81.14, 61.15 60.19 0.56 59




NCC Satellite Simultaneous Nadir Overpasses (SNOs) Prediction Service
